New Bern, NC

7:16 AM EDT on October 14, 2019 (GMT -0400)
Craven County Regional

Weather History for KEWN - August, 2019

Change the Weather History Date:

Saturday, August 31, 2019

  Actual Average Record
Temperature  
Mean Temperature 76 °F 78 °F  
Max Temperature 87 °F 86 °F 96 °F (1957)
Min Temperature 64 °F 69 °F 53 °F (1965)
Degree Days  
Heating Degree Days 0 0  
Month to date heating degree days 0 0  
Since 1 June heating degree days 0 1  
Since 1 July heating degree days 0 0  
Cooling Degree Days 10 13  
Month to date cooling degree days 466 439  
Year to date cooling degree days 1785 1529  
Since 1 June cooling degree days 1366 1286  
Growing Degree Days 26 (Base 50)    
Moisture  
Dew Point 66 °F    
Average Humidity 82    
Maximum Humidity 100    
Minimum Humidity 48    
Precipitation  
Precipitation 0.00 in 0.19 in 3.64 in (2006)
Month to date precipitation 5.50 6.65  
Year to date precipitation 28.44 36.80  
Snow  
Snow 0.00 in - - ()
Month to date snowfall 0.0  
Since 1 July snowfall 0.0  
Snow Depth 0.00 in    
Sea Level Pressure  
Sea Level Pressure 30.16 in    
Wind  
Wind Speed 2 mph ()    
Max Wind Speed 14 mph    
Max Gust Speed 20 mph    
Visibility 7.9 miles    
Events Fog    
T = Trace of Precipitation, MM = Missing Value Source: Averaged Metar Reports

Daily Weather History Graph

Daily Weather History Graph

Search for Another Location

Airport or City:

Astronomy

Aug. 31, 2019 Rise Set
Actual Time 6:39 AM EDT 7:36 PM EDT
Civil Twilight 6:13 AM EDT 8:02 PM EDT
Nautical Twilight 5:43 AM EDT 8:33 PM EDT
Astronomical Twilight 5:11 AM EDT 9:04 PM EDT
Moon 7:52 AM EDT (8/31) 8:51 PM EDT (8/31)
Length of Visible Light 13h 48m
Length of Day
12h 56m
New Moon, 2% of the Moon is Illuminated
Aug 31
New Moon
Sep 5
First Quarter
Sep 14
Full
Sep 21
Last Quarter
Sep 28
New

Hourly Weather History & Observations

Time (EDT) Temp. Heat Index Dew Point Humidity Pressure Visibility Wind Dir Wind Speed Gust Speed Precip Events Conditions
1:54 AM 68.0 °F - 66.0 °F 93% 30.16 in 10.0 mi Calm Calm - N/A   Clear
2:54 AM 66.9 °F - 66.0 °F 97% 30.14 in 10.0 mi Calm Calm - N/A   Clear
3:54 AM 66.9 °F - 66.0 °F 97% 30.14 in 10.0 mi Calm Calm - N/A   Clear
4:47 AM 64.0 °F - 64.0 °F 100% 30.14 in 10.0 mi Calm Calm - N/A   Partly Cloudy
4:54 AM 66.0 °F - 64.9 °F 96% 30.14 in 10.0 mi Calm Calm - N/A   Scattered Clouds
5:05 AM 64.9 °F - 64.9 °F 100% 30.14 in 10.0 mi Calm Calm - N/A   Mostly Cloudy
5:23 AM 64.9 °F - 64.9 °F 100% 30.14 in 0.8 mi Calm Calm - N/A   Mist
5:30 AM 64.9 °F - 64.9 °F 100% 30.14 in 0.2 mi Calm Calm - N/A Fog Fog
5:42 AM 64.9 °F - 64.9 °F 100% 30.14 in 1.0 mi Calm Calm - N/A   Mist
5:46 AM 64.9 °F - 64.9 °F 100% 30.14 in 3.0 mi Calm Calm - N/A   Overcast
5:54 AM 64.9 °F - 64.9 °F 100% 30.15 in 7.0 mi Calm Calm - N/A Fog Shallow Fog
6:07 AM 64.9 °F - 64.9 °F 100% 30.15 in 7.0 mi Calm Calm - N/A Fog Shallow Fog
6:54 AM 64.9 °F - 64.9 °F 100% 30.16 in 7.0 mi Calm Calm - N/A Fog Shallow Fog
7:01 AM 64.0 °F - 64.0 °F 100% 30.16 in 6.0 mi Calm Calm - N/A Fog Shallow Fog
7:12 AM 64.9 °F - 64.9 °F 100% 30.16 in 3.0 mi Calm Calm - N/A Fog Shallow Fog
7:16 AM 64.9 °F - 64.9 °F 100% 30.17 in 0.8 mi Calm Calm - N/A Fog Shallow Fog
7:23 AM 66.0 °F - 66.0 °F 100% 30.17 in 7.0 mi Calm Calm - N/A Fog Shallow Fog
7:54 AM 69.1 °F - 69.1 °F 100% 30.18 in 7.0 mi Calm Calm - N/A Fog Shallow Fog
8:54 AM 75.9 °F - 69.1 °F 79% 30.18 in 10.0 mi NE 4.6 mph - N/A   Clear
9:54 AM 80.1 °F 83.2 °F 70.0 °F 71% 30.18 in 10.0 mi NNE 5.8 mph - N/A   Clear
10:54 AM 82.9 °F 86.5 °F 69.1 °F 63% 30.19 in 10.0 mi NE 8.1 mph - N/A   Clear
11:54 AM 86.0 °F 90.1 °F 69.1 °F 57% 30.19 in 10.0 mi East 11.5 mph - N/A   Partly Cloudy
12:54 PM 86.0 °F 87.6 °F 64.9 °F 49% 30.19 in 10.0 mi ESE 9.2 mph 18.4 mph N/A   Clear
1:54 PM 86.0 °F 87.3 °F 64.0 °F 48% 30.19 in 10.0 mi East 10.4 mph - N/A   Clear
2:54 PM 84.9 °F 85.9 °F 63.0 °F 48% 30.17 in 10.0 mi ESE 10.4 mph - N/A   Clear
3:54 PM 84.0 °F 84.9 °F 63.0 °F 49% 30.16 in 10.0 mi East 8.1 mph - N/A   Clear
4:54 PM 84.0 °F 84.9 °F 63.0 °F 49% 30.15 in 10.0 mi ENE 11.5 mph - N/A   Clear
5:54 PM 82.0 °F 83.1 °F 63.0 °F 52% 30.14 in 10.0 mi ENE 6.9 mph - N/A   Clear
6:54 PM 79.0 °F - 64.9 °F 62% 30.15 in 10.0 mi ESE 4.6 mph - N/A   Clear
7:54 PM 78.1 °F - 66.0 °F 66% 30.16 in 10.0 mi East 4.6 mph - N/A   Clear
8:54 PM 77.0 °F - 66.9 °F 71% 30.17 in 10.0 mi East 5.8 mph - N/A   Clear
9:54 PM 75.0 °F - 68.0 °F 79% 30.18 in 10.0 mi ENE 4.6 mph - N/A   Clear
10:54 PM 75.9 °F - 68.0 °F 76% 30.19 in 10.0 mi East 5.8 mph - N/A   Clear
11:54 PM 75.0 °F - 68.0 °F 79% 30.17 in 10.0 mi ENE 5.8 mph - N/A   Clear